Teterboro, NJ

8:35 AM EST on November 12, 2019 (GMT -0500)
Teterboro

Weather History for KTEB - September, 2019

Change the Weather History Date:

Sunday, September 15, 2019

  Actual Average Record
Temperature  
Mean Temperature 73 °F -  
Max Temperature 84 °F 76 °F 91 °F (1998)
Min Temperature 64 °F 57 °F 46 °F (2001)
Cooling Degree Days 8    
Growing Degree Days 23 (Base 50)    
Moisture  
Dew Point 60 °F    
Average Humidity 67    
Maximum Humidity 100    
Minimum Humidity 29    
Precipitation  
Precipitation 0.00 in - - ()
Sea Level Pressure  
Sea Level Pressure 30.12 in    
Wind  
Wind Speed 2 mph ()    
Max Wind Speed 9 mph    
Max Gust Speed -    
Visibility 9.4 miles    
Events Fog    
Averages and records for this station are not official NWS values.
T = Trace of Precipitation, MM = Missing Value Source: Averaged Metar Reports

Daily Weather History Graph

Daily Weather History Graph

Search for Another Location

Airport or City:

Astronomy

Sep. 15, 2019 Rise Set
Actual Time 6:36 AM EDT 7:05 PM EDT
Civil Twilight 6:09 AM EDT 7:33 PM EDT
Nautical Twilight 5:36 AM EDT 8:05 PM EDT
Astronomical Twilight 5:03 AM EDT 8:38 PM EDT
Moon 8:11 PM EDT (9/15) 7:44 AM EDT (9/15)
Length of Visible Light 13h 24m
Length of Day
12h 29m
Full, 98% of the Moon is Illuminated
Sep 15
Full
Sep 21
Last Quarter
Sep 28
New
Oct 5
First Quarter
Oct 13
Full

Hourly Weather History & Observations

Time (EDT) Temp. Heat Index Dew Point Humidity Pressure Visibility Wind Dir Wind Speed Gust Speed Precip Events Conditions
12:51 AM 70.0 °F - 66.0 °F 87% 30.15 in 10.0 mi Calm Calm - 0.00 in   Mostly Cloudy
1:51 AM 70.0 °F - 66.0 °F 87% 30.15 in 10.0 mi Calm Calm - N/A   Mostly Cloudy
2:51 AM 68.0 °F - 66.0 °F 93% 30.14 in 10.0 mi Calm Calm - N/A   Mostly Cloudy
3:51 AM 69.1 °F - 66.0 °F 90% 30.14 in 10.0 mi Calm Calm - N/A   Mostly Cloudy
4:51 AM 68.0 °F - 64.9 °F 90% 30.14 in 10.0 mi Calm Calm - N/A   Mostly Cloudy
5:34 AM 66.0 °F - 64.0 °F 93% 30.15 in 10.0 mi Calm Calm - N/A Fog Shallow Fog
5:49 AM 64.4 °F - 64.4 °F 100% 30.15 in 1.8 mi Calm Calm - N/A Fog Shallow Fog
5:51 AM 66.0 °F - 64.0 °F 93% 30.15 in 1.5 mi Calm Calm - N/A Fog Shallow Fog
5:58 AM 66.0 °F - 64.0 °F 93% 30.15 in 10.0 mi Calm Calm - N/A Fog Shallow Fog
6:51 AM 64.0 °F - 63.0 °F 96% 30.15 in 10.0 mi Calm Calm - N/A Fog Shallow Fog
7:51 AM 68.0 °F - 64.9 °F 90% 30.15 in 10.0 mi Calm Calm - N/A   Partly Cloudy
8:51 AM 72.0 °F - 64.0 °F 76% 30.16 in 10.0 mi NNW 5.8 mph - N/A   Clear
9:51 AM 73.0 °F - 61.0 °F 66% 30.16 in 10.0 mi ENE 5.8 mph - N/A   Clear
10:51 AM 75.9 °F - 57.9 °F 54% 30.16 in 10.0 mi Variable 4.6 mph - N/A   Partly Cloudy
11:51 AM 78.1 °F - 60.1 °F 54% 30.14 in 10.0 mi North 4.6 mph - N/A   Clear
12:51 PM 79.0 °F - 55.0 °F 44% 30.12 in 10.0 mi Variable 5.8 mph - N/A   Clear
1:51 PM 81.0 °F 80.8 °F 55.9 °F 42% 30.10 in 10.0 mi Variable 3.5 mph - N/A   Clear
2:51 PM 82.9 °F - 51.1 °F 33% 30.07 in 10.0 mi WNW 6.9 mph - N/A   Clear
3:51 PM 82.9 °F - 48.0 °F 29% 30.06 in 10.0 mi NW 9.2 mph - N/A   Clear
4:51 PM 82.0 °F - 51.1 °F 34% 30.07 in 10.0 mi WNW 9.2 mph - N/A   Clear
5:51 PM 80.1 °F 80.0 °F 54.0 °F 40% 30.07 in 10.0 mi WSW 9.2 mph - N/A   Clear
6:51 PM 81.0 °F 80.7 °F 55.0 °F 41% 30.06 in 10.0 mi Variable 5.8 mph - N/A   Clear
7:51 PM 75.9 °F - 55.0 °F 48% 30.06 in 10.0 mi West 4.6 mph - N/A   Clear
8:51 PM 73.9 °F - 55.9 °F 53% 30.06 in 10.0 mi West 4.6 mph - N/A   Clear
9:51 PM 72.0 °F - 57.0 °F 59% 30.06 in 10.0 mi WNW 4.6 mph - N/A   Clear
11:51 PM 72.0 °F - 57.0 °F 59% 30.05 in 10.0 mi Calm Calm - N/A   Clear